LVMEP SADF-SAFR

Flight info

Callsign LVMEP
Flight time 1h 15m
Altitude 12000
Route ATOVO W5 ROS T672 ISOPO
Aircraft BE60/L-SDFGRY/C

Departure

Time 2026-04-30 20:20
Airport San Fernando Airport (SADF)

Arrival

Time 2026-04-30 21:36
Airport Rafaela Airport (SAFR)
Time Latitude Longitude Altitude Speed Heading
2026-04-30 20:01 -34.45564 -58.58401 21 ft 0 kts 211°
2026-04-30 20:14 -34.45564 -58.58402 21 ft 0 kts 211°
2026-04-30 20:15 -34.45562 -58.58424 21 ft 7 kts 313°
2026-04-30 20:15 -34.45553 -58.58495 21 ft 12 kts 243°
2026-04-30 20:15 -34.45600 -58.58603 21 ft 17 kts 242°
2026-04-30 20:15 -34.45660 -58.58742 21 ft 21 kts 242°
2026-04-30 20:16 -34.45732 -58.58910 21 ft 24 kts 243°
2026-04-30 20:16 -34.45813 -58.59102 21 ft 27 kts 243°
2026-04-30 20:16 -34.45905 -58.59310 21 ft 29 kts 242°
2026-04-30 20:16 -34.45956 -58.59432 21 ft 15 kts 243°
2026-04-30 20:17 -34.46008 -58.59554 21 ft 16 kts 242°
2026-04-30 20:17 -34.46023 -58.59588 21 ft 0 kts 243°
2026-04-30 20:18 -34.46032 -58.59618 21 ft 8 kts 272°
2026-04-30 20:19 -34.45986 -58.59688 21 ft 15 kts 333°
2026-04-30 20:19 -34.45956 -58.59676 21 ft 0 kts 43°
2026-04-30 20:19 -34.45943 -58.59662 21 ft 21 kts 43°
2026-04-30 20:19 -34.45645 -58.59312 22 ft 93 kts 44°
2026-04-30 20:20 -34.45090 -58.58664 138 ft 125 kts 43°
2026-04-30 20:20 -34.44405 -58.57903 446 ft 140 kts 44°
2026-04-30 20:20 -34.43672 -58.57085 813 ft 146 kts 44°
2026-04-30 20:20 -34.42972 -58.56180 1172 ft 147 kts 46°
2026-04-30 20:21 -34.42290 -58.55275 1537 ft 148 kts 45°
2026-04-30 20:21 -34.41514 -58.54494 1901 ft 145 kts 17°
2026-04-30 20:21 -34.40535 -58.54592 2262 ft 145 kts 336°
2026-04-30 20:21 -34.39816 -58.55454 2613 ft 149 kts 307°
2026-04-30 20:22 -34.39234 -58.56512 2910 ft 152 kts 307°
2026-04-30 20:22 -34.38634 -58.57578 3264 ft 154 kts 307°
2026-04-30 20:22 -34.38029 -58.58653 3599 ft 154 kts 307°
2026-04-30 20:22 -34.37427 -58.59726 3914 ft 155 kts 307°
2026-04-30 20:23 -34.36821 -58.60803 4270 ft 155 kts 307°
2026-04-30 20:23 -34.36216 -58.61882 4632 ft 155 kts 307°
2026-04-30 20:23 -34.35607 -58.62968 4951 ft 156 kts 308°
2026-04-30 20:23 -34.35003 -58.64041 5260 ft 156 kts 308°
2026-04-30 20:24 -34.34389 -58.65133 5592 ft 157 kts 307°
2026-04-30 20:24 -34.33773 -58.66226 5922 ft 157 kts 307°
2026-04-30 20:24 -34.33160 -58.67316 6256 ft 157 kts 307°
2026-04-30 20:24 -34.32543 -58.68410 6567 ft 157 kts 307°
2026-04-30 20:25 -34.31309 -58.70601 7202 ft 158 kts 307°
2026-04-30 20:25 -34.30692 -58.71698 7512 ft 158 kts 307°
2026-04-30 20:26 -34.29459 -58.73884 8177 ft 157 kts 307°
2026-04-30 20:26 -34.28228 -58.76068 8843 ft 157 kts 307°
2026-04-30 20:26 -34.27612 -58.77159 9175 ft 157 kts 307°
2026-04-30 20:27 -34.26382 -58.79337 9852 ft 157 kts 306°
2026-04-30 20:27 -34.25153 -58.81513 10477 ft 157 kts 306°
2026-04-30 20:28 -34.23902 -58.83649 11092 ft 157 kts 316°
2026-04-30 20:28 -34.22120 -58.85173 11718 ft 157 kts 321°
2026-04-30 20:29 -34.20287 -58.86836 11973 ft 179 kts 321°
2026-04-30 20:30 -34.17094 -58.89740 11979 ft 197 kts 321°
2026-04-30 20:30 -34.13754 -58.92778 11973 ft 202 kts 321°
2026-04-30 20:31 -34.10388 -58.95836 11973 ft 203 kts 321°
2026-04-30 20:32 -34.07020 -58.98893 11970 ft 202 kts 321°
2026-04-30 20:32 -34.04761 -59.00942 11971 ft 204 kts 321°
2026-04-30 20:33 -34.03622 -59.01974 11973 ft 205 kts 321°
2026-04-30 20:33 -34.01341 -59.04041 11965 ft 205 kts 321°
2026-04-30 20:33 -34.00200 -59.05074 11968 ft 205 kts 321°
2026-04-30 20:34 -33.97918 -59.07139 11965 ft 205 kts 321°
2026-04-30 20:34 -33.95649 -59.09191 11966 ft 205 kts 321°
2026-04-30 20:35 -33.94493 -59.10236 11967 ft 205 kts 321°
2026-04-30 20:35 -33.93368 -59.11253 11963 ft 205 kts 321°
2026-04-30 20:35 -33.91114 -59.13287 12159 ft 197 kts 321°
2026-04-30 20:36 -33.90034 -59.14263 12309 ft 192 kts 321°
2026-04-30 20:36 -33.88970 -59.15224 12450 ft 190 kts 321°
2026-04-30 20:36 -33.86872 -59.17116 12730 ft 187 kts 320°
2026-04-30 20:37 -33.85829 -59.18057 12855 ft 187 kts 320°
2026-04-30 20:37 -33.84790 -59.18993 12987 ft 187 kts 320°
2026-04-30 20:37 -33.83752 -59.19929 13119 ft 186 kts 320°
2026-04-30 20:37 -33.82712 -59.20864 13250 ft 187 kts 320°
2026-04-30 20:38 -33.81685 -59.21790 13376 ft 187 kts 319°
2026-04-30 20:38 -33.80646 -59.22725 13507 ft 187 kts 319°
2026-04-30 20:38 -33.79605 -59.23663 13641 ft 187 kts 319°
2026-04-30 20:39 -33.77518 -59.25539 13890 ft 187 kts 319°
2026-04-30 20:39 -33.76469 -59.26483 13945 ft 191 kts 319°
2026-04-30 20:39 -33.75744 -59.27135 13945 ft 194 kts 319°
2026-04-30 20:40 -33.73550 -59.29107 13955 ft 201 kts 319°
2026-04-30 20:40 -33.72578 -59.29979 13951 ft 203 kts 319°
2026-04-30 20:40 -33.71441 -59.30999 13958 ft 205 kts 319°
2026-04-30 20:41 -33.69144 -59.33060 13955 ft 207 kts 319°
2026-04-30 20:41 -33.67987 -59.34097 13956 ft 208 kts 319°
2026-04-30 20:41 -33.66826 -59.35138 13957 ft 208 kts 320°
2026-04-30 20:41 -33.65664 -59.36179 13959 ft 209 kts 320°
2026-04-30 20:42 -33.64499 -59.37223 13957 ft 209 kts 320°
2026-04-30 20:42 -33.63331 -59.38269 13955 ft 209 kts 320°
2026-04-30 20:42 -33.60993 -59.40362 13954 ft 210 kts 320°
2026-04-30 20:43 -33.59825 -59.41408 13952 ft 210 kts 320°
2026-04-30 20:43 -33.58653 -59.42455 13952 ft 210 kts 320°
2026-04-30 20:43 -33.57481 -59.43503 13951 ft 210 kts 320°
2026-04-30 20:44 -33.55139 -59.45595 13951 ft 210 kts 320°
2026-04-30 20:44 -33.53967 -59.46643 13950 ft 210 kts 320°
2026-04-30 20:44 -33.51640 -59.48719 13947 ft 210 kts 320°
2026-04-30 20:45 -33.49296 -59.50811 13945 ft 210 kts 320°
2026-04-30 20:45 -33.48128 -59.51852 13944 ft 210 kts 320°
2026-04-30 20:45 -33.46956 -59.52896 13944 ft 210 kts 320°
2026-04-30 20:46 -33.43445 -59.56022 13944 ft 209 kts 320°
2026-04-30 20:46 -33.42276 -59.57063 13940 ft 209 kts 320°
2026-04-30 20:47 -33.39940 -59.59142 13940 ft 209 kts 320°
2026-04-30 20:47 -33.38772 -59.60180 13939 ft 209 kts 320°
2026-04-30 20:48 -33.36434 -59.62258 13940 ft 209 kts 320°
2026-04-30 20:48 -33.35265 -59.63296 13939 ft 209 kts 320°
2026-04-30 20:48 -33.34094 -59.64336 13938 ft 209 kts 320°
2026-04-30 20:48 -33.32925 -59.65373 13941 ft 209 kts 320°
2026-04-30 20:49 -33.31756 -59.66410 13937 ft 209 kts 320°
2026-04-30 20:49 -33.30588 -59.67446 13939 ft 209 kts 320°
2026-04-30 20:49 -33.29416 -59.68486 13941 ft 209 kts 320°
2026-04-30 20:50 -33.27090 -59.70547 13937 ft 209 kts 320°
2026-04-30 20:50 -33.25918 -59.71585 13934 ft 209 kts 320°
2026-04-30 20:50 -33.24733 -59.72634 13934 ft 209 kts 320°
2026-04-30 20:50 -33.23580 -59.73655 13934 ft 209 kts 320°
2026-04-30 20:51 -33.22408 -59.74692 13933 ft 209 kts 320°
2026-04-30 20:51 -33.20069 -59.76761 13930 ft 209 kts 320°
2026-04-30 20:51 -33.18898 -59.77795 13929 ft 209 kts 320°
2026-04-30 20:52 -33.17729 -59.78828 13931 ft 209 kts 320°
2026-04-30 20:52 -33.16560 -59.79861 13931 ft 209 kts 320°
2026-04-30 20:52 -33.14222 -59.81926 13929 ft 209 kts 320°
2026-04-30 20:53 -33.13052 -59.82958 13928 ft 209 kts 320°
2026-04-30 20:53 -33.11882 -59.83990 13929 ft 209 kts 320°
2026-04-30 20:53 -33.10711 -59.85023 13926 ft 209 kts 320°
2026-04-30 20:54 -33.08372 -59.87084 13925 ft 209 kts 320°
2026-04-30 20:54 -33.07203 -59.88114 13928 ft 209 kts 320°
2026-04-30 20:54 -33.06033 -59.89144 13924 ft 209 kts 320°
2026-04-30 20:55 -33.03711 -59.91188 13925 ft 209 kts 320°
2026-04-30 20:55 -33.02544 -59.92215 13921 ft 209 kts 320°
2026-04-30 20:55 -33.01375 -59.93243 13923 ft 209 kts 320°
2026-04-30 20:56 -32.99038 -59.95298 13921 ft 209 kts 321°
2026-04-30 20:56 -32.97868 -59.96326 13920 ft 209 kts 321°
2026-04-30 20:56 -32.95534 -59.98375 13920 ft 208 kts 321°
2026-04-30 20:57 -32.94367 -59.99399 13917 ft 208 kts 321°
2026-04-30 20:57 -32.93200 -60.00423 13920 ft 208 kts 321°
2026-04-30 20:57 -32.92033 -60.01448 13916 ft 208 kts 321°
2026-04-30 20:58 -32.89712 -60.03482 13917 ft 209 kts 321°
2026-04-30 20:58 -32.88544 -60.04505 13912 ft 209 kts 321°
2026-04-30 20:58 -32.87373 -60.05531 13911 ft 209 kts 321°
2026-04-30 20:58 -32.86204 -60.06554 13915 ft 209 kts 321°
2026-04-30 20:59 -32.83865 -60.08602 13913 ft 209 kts 321°
2026-04-30 20:59 -32.82696 -60.09624 13914 ft 209 kts 321°
2026-04-30 21:00 -32.80353 -60.11673 13915 ft 209 kts 321°
2026-04-30 21:00 -32.78014 -60.13716 13912 ft 208 kts 321°
2026-04-30 21:01 -32.75677 -60.15757 13911 ft 208 kts 321°
2026-04-30 21:01 -32.74508 -60.16777 13913 ft 209 kts 321°
2026-04-30 21:01 -32.72168 -60.18819 13915 ft 209 kts 321°
2026-04-30 21:02 -32.70997 -60.19840 13912 ft 208 kts 321°
2026-04-30 21:02 -32.69839 -60.20849 13911 ft 209 kts 321°
2026-04-30 21:02 -32.68668 -60.21869 13909 ft 209 kts 321°
2026-04-30 21:02 -32.67498 -60.22888 13913 ft 209 kts 321°
2026-04-30 21:03 -32.66327 -60.23908 13912 ft 209 kts 321°
2026-04-30 21:03 -32.65153 -60.24930 13912 ft 209 kts 321°
2026-04-30 21:03 -32.63979 -60.25951 13911 ft 209 kts 322°
2026-04-30 21:03 -32.62808 -60.26969 13912 ft 209 kts 322°
2026-04-30 21:04 -32.61636 -60.27989 13913 ft 209 kts 322°
2026-04-30 21:04 -32.60464 -60.29008 13910 ft 209 kts 322°
2026-04-30 21:04 -32.58119 -60.31044 13908 ft 209 kts 322°
2026-04-30 21:05 -32.56964 -60.32047 13910 ft 208 kts 322°
2026-04-30 21:05 -32.55794 -60.33064 13909 ft 208 kts 322°
2026-04-30 21:05 -32.54625 -60.34078 13907 ft 208 kts 322°
2026-04-30 21:05 -32.53453 -60.35094 13907 ft 208 kts 322°
2026-04-30 21:06 -32.52285 -60.36108 13906 ft 208 kts 322°
2026-04-30 21:06 -32.51117 -60.37120 13904 ft 208 kts 322°
2026-04-30 21:06 -32.49949 -60.38132 13905 ft 208 kts 322°
2026-04-30 21:06 -32.48778 -60.39147 13903 ft 208 kts 322°
2026-04-30 21:07 -32.47609 -60.40159 13905 ft 208 kts 322°
2026-04-30 21:07 -32.46441 -60.41171 13907 ft 208 kts 322°
2026-04-30 21:07 -32.45272 -60.42183 13903 ft 208 kts 322°
2026-04-30 21:07 -32.44104 -60.43194 13906 ft 208 kts 322°
2026-04-30 21:08 -32.42936 -60.44203 13904 ft 208 kts 322°
2026-04-30 21:08 -32.41768 -60.45213 13903 ft 208 kts 322°
2026-04-30 21:08 -32.40600 -60.46223 13904 ft 208 kts 322°
2026-04-30 21:08 -32.39435 -60.47230 13904 ft 208 kts 322°
2026-04-30 21:09 -32.38282 -60.48226 13904 ft 208 kts 322°
2026-04-30 21:09 -32.37100 -60.49246 13900 ft 208 kts 322°
2026-04-30 21:09 -32.35948 -60.50241 13900 ft 208 kts 322°
2026-04-30 21:09 -32.34779 -60.51250 13900 ft 208 kts 322°
2026-04-30 21:10 -32.33612 -60.52257 13901 ft 208 kts 322°
2026-04-30 21:10 -32.32444 -60.53264 13902 ft 208 kts 322°
2026-04-30 21:10 -32.31275 -60.54272 13903 ft 208 kts 323°
2026-04-30 21:10 -32.30106 -60.55279 13901 ft 208 kts 323°
2026-04-30 21:11 -32.28939 -60.56285 13901 ft 208 kts 323°
2026-04-30 21:11 -32.27771 -60.57291 13900 ft 208 kts 323°
2026-04-30 21:11 -32.26603 -60.58297 13900 ft 208 kts 323°
2026-04-30 21:11 -32.25434 -60.59302 13899 ft 208 kts 323°
2026-04-30 21:12 -32.24267 -60.60307 13897 ft 208 kts 323°
2026-04-30 21:12 -32.23100 -60.61311 13896 ft 208 kts 323°
2026-04-30 21:12 -32.21929 -60.62317 13895 ft 208 kts 323°
2026-04-30 21:12 -32.20761 -60.63322 13897 ft 208 kts 323°
2026-04-30 21:13 -32.19591 -60.64327 13895 ft 208 kts 323°
2026-04-30 21:13 -32.18422 -60.65331 13894 ft 208 kts 323°
2026-04-30 21:13 -32.17256 -60.66333 13895 ft 208 kts 323°
2026-04-30 21:13 -32.16087 -60.67336 13895 ft 208 kts 323°
2026-04-30 21:14 -32.14934 -60.68326 13894 ft 207 kts 323°
2026-04-30 21:14 -32.13767 -60.69327 13891 ft 207 kts 323°
2026-04-30 21:14 -32.12600 -60.70328 13893 ft 207 kts 323°
2026-04-30 21:14 -32.11432 -60.71329 13895 ft 207 kts 323°
2026-04-30 21:15 -32.10266 -60.72328 13892 ft 207 kts 323°
2026-04-30 21:15 -32.09101 -60.73327 13897 ft 207 kts 323°
2026-04-30 21:15 -32.07936 -60.74325 13893 ft 207 kts 323°
2026-04-30 21:15 -32.06769 -60.75324 13894 ft 207 kts 323°
2026-04-30 21:16 -32.05605 -60.76320 13893 ft 207 kts 323°
2026-04-30 21:16 -32.04439 -60.77319 13895 ft 207 kts 323°
2026-04-30 21:16 -32.03275 -60.78314 13891 ft 207 kts 323°
2026-04-30 21:16 -32.02108 -60.79312 13894 ft 207 kts 323°
2026-04-30 21:17 -32.00943 -60.80308 13892 ft 207 kts 323°
2026-04-30 21:17 -31.99775 -60.81306 13894 ft 207 kts 323°
2026-04-30 21:17 -31.98611 -60.82301 13897 ft 207 kts 323°
2026-04-30 21:17 -31.97446 -60.83296 13894 ft 207 kts 324°
2026-04-30 21:18 -31.96291 -60.84282 13898 ft 207 kts 324°
2026-04-30 21:18 -31.95126 -60.85277 13896 ft 207 kts 324°
2026-04-30 21:18 -31.93958 -60.86273 13897 ft 207 kts 324°
2026-04-30 21:18 -31.92789 -60.87270 13898 ft 207 kts 324°
2026-04-30 21:19 -31.91619 -60.88268 13899 ft 207 kts 324°
2026-04-30 21:19 -31.90453 -60.89262 13897 ft 207 kts 324°
2026-04-30 21:19 -31.89286 -60.90257 13895 ft 207 kts 324°
2026-04-30 21:19 -31.88120 -60.91250 13897 ft 207 kts 324°
2026-04-30 21:20 -31.86954 -60.92243 13897 ft 207 kts 324°
2026-04-30 21:20 -31.85802 -60.93223 13899 ft 206 kts 324°
2026-04-30 21:20 -31.84640 -60.94212 13897 ft 206 kts 324°
2026-04-30 21:20 -31.83481 -60.95200 13898 ft 206 kts 323°
2026-04-30 21:21 -31.82322 -60.96186 13899 ft 206 kts 324°
2026-04-30 21:21 -31.78903 -60.99090 13900 ft 206 kts 324°
2026-04-30 21:22 -31.77743 -61.00076 13898 ft 206 kts 324°
2026-04-30 21:22 -31.74165 -61.03113 13377 ft 217 kts 324°
2026-04-30 21:23 -31.72935 -61.04156 13074 ft 219 kts 324°
2026-04-30 21:23 -31.71700 -61.05204 12780 ft 219 kts 324°
2026-04-30 21:23 -31.69227 -61.07301 12200 ft 219 kts 325°
2026-04-30 21:24 -31.67996 -61.08344 11919 ft 218 kts 325°
2026-04-30 21:24 -31.66769 -61.09384 11638 ft 217 kts 325°
2026-04-30 21:24 -31.65545 -61.10419 11367 ft 216 kts 326°
2026-04-30 21:24 -31.64330 -61.11447 11096 ft 215 kts 326°
2026-04-30 21:25 -31.61917 -61.13489 10570 ft 213 kts 326°
2026-04-30 21:25 -31.60736 -61.14488 10316 ft 211 kts 326°
2026-04-30 21:25 -31.59542 -61.15497 10061 ft 210 kts 327°
2026-04-30 21:26 -31.57177 -61.17496 9525 ft 208 kts 327°
2026-04-30 21:26 -31.56003 -61.18487 9238 ft 207 kts 327°
2026-04-30 21:27 -31.53669 -61.20457 8685 ft 206 kts 327°
2026-04-30 21:27 -31.52508 -61.21437 8415 ft 205 kts 328°
2026-04-30 21:27 -31.51350 -61.22414 8149 ft 204 kts 328°
2026-04-30 21:28 -31.49047 -61.24355 7636 ft 203 kts 328°
2026-04-30 21:28 -31.47912 -61.25310 7386 ft 203 kts 328°
2026-04-30 21:28 -31.45621 -61.27241 6810 ft 202 kts 329°
2026-04-30 21:29 -31.44485 -61.28198 6471 ft 200 kts 329°
2026-04-30 21:29 -31.42517 -61.32643 5250 ft 213 kts 297°
2026-04-30 21:30 -31.41561 -61.35909 4451 ft 210 kts 294°
2026-04-30 21:31 -31.40358 -61.40227 3415 ft 210 kts 293°
2026-04-30 21:31 -31.39446 -61.43477 2655 ft 210 kts 293°
2026-04-30 21:32 -31.38545 -61.46688 1961 ft 204 kts 293°
2026-04-30 21:32 -31.38103 -61.48259 1683 ft 200 kts 292°
2026-04-30 21:32 -31.37584 -61.49656 1670 ft 180 kts 309°
2026-04-30 21:32 -31.36755 -61.50676 1661 ft 164 kts 329°
2026-04-30 21:33 -31.35810 -61.51271 1655 ft 151 kts 345°
2026-04-30 21:33 -31.34000 -61.51452 1351 ft 111 kts 13°
2026-04-30 21:33 -31.33278 -61.51286 1207 ft 102 kts 13°
2026-04-30 21:34 -31.32596 -61.51137 1080 ft 98 kts 13°
2026-04-30 21:34 -31.31257 -61.50843 825 ft 97 kts 14°
2026-04-30 21:34 -31.30593 -61.50695 712 ft 98 kts 13°
2026-04-30 21:35 -31.29914 -61.50544 576 ft 100 kts 12°
2026-04-30 21:35 -31.29233 -61.50395 437 ft 98 kts 11°
2026-04-30 21:35 -31.28606 -61.50256 333 ft 78 kts 10°
2026-04-30 21:35 -31.28171 -61.50159 345 ft 53 kts 11°
2026-04-30 21:36 -31.27865 -61.50091 347 ft 38 kts
2026-04-30 21:36 -31.27747 -61.50061 345 ft 3 kts 65°
2026-04-30 21:37 -31.27866 -61.49909 339 ft 15 kts 178°
2026-04-30 21:37 -31.27888 -61.49853 337 ft 0 kts 98°